Acapulco, Mexico

4:48 AM CST on January 16, 2018 (GMT -0600)
Gen Juan N Alvarez International

Weather History for MMAA - February, 2013

Change the Weather History Date:

Monday, February 18, 2013

  Actual Average Record
Temperature  
Mean Temperature 80 °F -  
Max Temperature 89 °F 85 °F 95 °F (2016)
Min Temperature 71 °F 69 °F 67 °F (2017)
Cooling Degree Days 15    
Growing Degree Days 30 (Base 50)    
Moisture  
Dew Point 72 °F    
Average Humidity 74    
Maximum Humidity 89    
Minimum Humidity 51    
Precipitation  
Precipitation 0.00 in - - ()
Sea Level Pressure  
Sea Level Pressure 29.89 in    
Wind  
Wind Speed 2 mph ()    
Max Wind Speed 12 mph    
Max Gust Speed -    
Visibility 8.3 miles    
Events      
Averages and records for this station are not official NWS values.
T = Trace of Precipitation, MM = Missing Value Source: Averaged Metar Reports

Daily Weather History Graph

Daily Weather History Graph

Search for Another Location

Airport or City:

Trip Planner

Search our weather history database for the weather conditions in past years. The results will help you decide how hot, cold, wet, or windy it might be!

Date:

Astronomy

Feb. 18, 2013 Rise Set
Actual Time 7:03 AM CST 6:42 PM CST
Civil Twilight 6:41 AM CST 7:04 PM CST
Nautical Twilight 6:15 AM CST 7:30 PM CST
Astronomical Twilight 5:50 AM CST 7:55 PM CST
Moon 12:54 PM CST (2/18) 1:21 AM CST (2/18)
Length of Visible Light 12h 23m
Length of Day
11h 39m
First Quarter, 58% of the Moon is Illuminated
Feb 18
First Quarter
Feb 25
Full
Mar 4
Last Quarter
Mar 11
New
Mar 19
First Quarter

Hourly Weather History & Observations

Time (CST) Temp. Heat Index Dew Point Humidity Pressure Visibility Wind Dir Wind Speed Gust Speed Precip Events Conditions
12:45 AM 77.0 °F - 69.8 °F 78% 29.93 in 8.0 mi Calm Calm - N/A   Clear
1:45 AM 77.0 °F - 69.8 °F 78% 29.93 in 8.0 mi Calm Calm - N/A   Clear
2:54 AM 77.0 °F - 69.8 °F 78% 29.95 in 8.0 mi Calm Calm - N/A   Clear
3:45 AM 75.2 °F - 68.0 °F 78% 29.91 in 8.0 mi Calm Calm - N/A   Clear
4:45 AM 75.2 °F - 68.0 °F 78% 29.91 in 8.0 mi Calm Calm - N/A   Clear
5:45 AM 75.2 °F - 68.0 °F 78% 29.89 in 7.0 mi Calm Calm - N/A   Clear
6:58 AM 73.4 °F - 68.0 °F 83% 29.92 in 7.0 mi Calm Calm - N/A   Clear
7:42 AM 73.4 °F - 68.0 °F 83% 29.94 in 8.0 mi Calm Calm - N/A   Clear
8:44 AM 75.2 °F - 66.2 °F 73% 29.96 in 8.0 mi Calm Calm - N/A   Clear
9:42 AM 78.8 °F - 68.0 °F 69% 29.96 in 8.0 mi Calm Calm - N/A   Unknown
10:42 AM 84.2 °F 88.4 °F 69.8 °F 62% 29.96 in 8.0 mi Calm Calm - N/A   Clear
11:44 AM 86.0 °F 93.4 °F 73.4 °F 66% 29.95 in 8.0 mi Calm Calm - N/A   Clear
11:50 AM 84 °F - 71 °F 58% 29.94 in 12 mi SW 4.5 mph - -  
12:44 PM 87.8 °F 95.6 °F 73.4 °F 62% 29.90 in 8.0 mi WSW 8.1 mph - N/A   Clear
1:41 PM 87.8 °F 99.7 °F 77.0 °F 70% 29.87 in 8.0 mi WSW 5.8 mph - N/A   Clear
2:45 PM 87.8 °F 95.6 °F 73.4 °F 62% 29.84 in 8.0 mi West 11.5 mph - N/A   Clear
2:50 PM 86 °F - 73 °F 57% 29.84 in 12 mi WSW 8.9 mph - -  
3:44 PM 86.0 °F 96.9 °F 77.0 °F 74% 29.82 in 8.0 mi WSW 11.5 mph - N/A   Clear
4:47 PM 86.0 °F 96.9 °F 77.0 °F 74% 29.82 in 8.0 mi WSW 9.2 mph - N/A   Clear
5:45 PM 86.0 °F 93.4 °F 73.4 °F 66% 29.81 in 8.0 mi WSW 11.5 mph - N/A   Clear
5:50 PM 84 °F - 69 °F 51% 29.83 in 12 mi WSW 6.7 mph - -  
6:43 PM 82.4 °F 89.5 °F 75.2 °F 79% 29.83 in 8.0 mi West 5.8 mph - N/A   Clear
7:45 PM 80.6 °F 86.2 °F 75.2 °F 84% 29.85 in 8.0 mi WSW 5.8 mph - N/A   Clear
8:43 PM 80.6 °F 86.2 °F 75.2 °F 84% 29.81 in 8.0 mi Calm Calm - N/A   Clear
8:50 PM 78 °F - 73 °F 79% 29.88 in 6 mi West 4.5 mph - -   Scattered Clouds
9:42 PM 78.8 °F - 73.4 °F 83% 29.90 in 8.0 mi Calm Calm - N/A   Clear
10:42 PM 78.8 °F - 73.4 °F 83% 29.92 in 8.0 mi Calm Calm - N/A   Clear
11:42 PM 77.0 °F - 73.4 °F 89% 29.92 in 8.0 mi Calm Calm - N/A   Clear